EW3814 Weather Reports


Display with metric or nautical units.
time (UTC)temp
F
wind
direction
speed
MPH
gust
MPH
rain 1hr
in
rain 24hr
in
rain mn
in
humidity
%
barometer
mb
20180919223637 82 208 0.0 0.0 0.00 0.00 0.00 67 1014.6
20180919223136 82 208 0.0 0.0 0.00 0.00 0.00 66 1014.5
20180919222636 82 208 0.0 0.0 0.00 0.00 0.00 67 1014.5
20180919222137 82 208 0.0 0.0 0.00 0.00 0.00 67 1014.5
20180919221637 83 208 0.0 0.0 0.00 0.00 0.00 68 1014.5
20180919221135 83 208 0.0 0.0 0.00 0.00 0.00 66 1014.5
20180919220633 83 208 0.0 0.0 0.00 0.00 0.00 64 1014.4
20180919220132 83 208 0.0 0.0 0.00 0.00 0.00 63 1014.4
20180919215629 83 208 0.0 0.0 0.00 0.00 0.00 64 1014.3
20180919215128 83 208 0.0 0.0 0.00 0.00 0.00 63 1014.3
20180919214627 83 208 0.0 0.0 0.00 0.00 0.00 64 1014.2
20180919214127 83 192 0.0 0.0 0.00 0.00 0.00 62 1014.1
20180919213627 83 192 0.0 0.0 0.00 0.00 0.00 59 1014.2
20180919213124 83 185 0.0 0.0 0.00 0.00 0.00 59 1014.1
20180919212625 83 210 0.0 0.0 0.00 0.00 0.00 61 1014.1
20180919212125 84 214 0.0 0.0 0.00 0.00 0.00 62 1014.2
20180919211623 84 214 0.0 0.0 0.00 0.00 0.00 60 1014.1
20180919211123 84 205 0.0 0.0 0.00 0.00 0.00 58 1014.1
20180919210622 84 285 0.0 0.0 0.00 0.00 0.00 60 1014.1
20180919210123 84 285 0.0 0.0 0.00 0.00 0.00 59 1014.2
20180919205623 84 321 0.0 0.0 0.00 0.00 0.00 61 1014.2
20180919205123 84 321 0.0 0.0 0.00 0.00 0.00 59 1014.2
20180919204623 84 321 0.0 0.0 0.00 0.00 0.00 59 1014.3
20180919204122 84 318 0.0 0.0 0.00 0.00 0.00 58 1014.2
20180919203622 84 319 0.0 0.0 0.00 0.00 0.00 58 1014.2
20180919203123 84 300 0.0 0.0 0.00 0.00 0.00 58 1014.2
20180919202621 84 300 0.0 0.0 0.00 0.00 0.00 57 1014.2
20180919202121 84 300 0.0 0.0 0.00 0.00 0.00 57 1014.1
20180919201622 84 283 0.0 0.0 0.00 0.00 0.00 58 1014.2
20180919201120 84 283 0.0 0.0 0.00 0.00 0.00 57 1014.2
20180919200620 84 267 0.0 0.0 0.00 0.00 0.00 60 1014.2
20180919200121 84 219 0.0 0.0 0.00 0.00 0.00 57 1014.3
20180919195620 85 287 0.0 0.0 0.00 0.00 0.00 58 1014.2
20180919195122 85 316 0.0 0.0 0.00 0.00 0.00 57 1014.3
20180919194622 85 316 0.0 0.0 0.00 0.00 0.00 58 1014.3
20180919194120 85 183 0.0 0.0 0.00 0.00 0.00 56 1014.3
20180919193620 85 306 0.0 0.0 0.00 0.00 0.00 58 1014.3
20180919193119 85 319 0.0 4.0 0.00 0.00 0.00 57 1014.4
20180919192618 85 319 0.0 4.0 0.00 0.00 0.00 55 1014.5
20180919192119 85 251 0.0 0.0 0.00 0.00 0.00 57 1014.5
20180919191620 85 245 0.0 0.0 0.00 0.00 0.00 55 1014.4
20180919191119 86 303 0.0 0.0 0.00 0.00 0.00 55 1014.4
20180919190620 86 285 0.0 1.0 0.00 0.00 0.00 57 1014.5
20180919190117 86 273 0.0 1.0 0.00 0.00 0.00 54 1014.5
20180919185616 86 242 0.0 1.0 0.00 0.00 0.00 55 1014.6
20180919185116 86 234 0.0 0.0 0.00 0.00 0.00 57 1014.6
20180919184615 86 257 0.0 0.0 0.00 0.00 0.00 60 1014.7
20180919184118 86 256 0.0 0.0 0.00 0.00 0.00 55 1014.8
20180919183617 86 304 0.0 0.0 0.00 0.00 0.00 55 1014.8
20180919183117 85 318 0.0 0.0 0.00 0.00 0.00 57 1014.8
20180919182616 86 330 0.0 0.0 0.00 0.00 0.00 55 1014.9
20180919182114 86 348 0.0 0.0 0.00 0.00 0.00 56 1015.0
20180919181615 86 321 0.0 0.0 0.00 0.00 0.00 57 1015.1
20180919181114 86 306 0.0 0.0 0.00 0.00 0.00 58 1015.1
20180919180614 85 314 0.0 0.0 0.00 0.00 0.00 58 1015.1
20180919180115 85 348 0.0 0.0 0.00 0.00 0.00 56 1015.2
20180919175612 86 343 0.0 0.0 0.00 0.00 0.00 58 1015.2
20180919175112 86 256 0.0 0.0 0.00 0.00 0.00 57 1015.2
20180919174612 86 314 0.0 0.0 0.00 0.00 0.00 59 1015.2
20180919174112 85 327 0.0 0.0 0.00 0.00 0.00 61 1015.3
20180919173611 85 338 0.0 1.0 0.00 0.00 0.00 62 1015.3
20180919173110 85 310 0.0 1.0 0.00 0.00 0.00 63 1015.4
20180919172611 85 317 0.0 0.0 0.00 0.00 0.00 59 1015.4
20180919172111 84 72 0.0 0.0 0.00 0.00 0.00 60 1015.5
20180919171611 84 348 0.0 0.0 0.00 0.00 0.00 64 1015.6
20180919171109 85 319 0.0 0.0 0.00 0.00 0.00 60 1015.7
20180919170611 85 333 0.0 0.0 0.00 0.00 0.00 60 1015.7
20180919170109 85 281 0.0 0.0 0.00 0.00 0.00 62 1015.7
20180919165611 84 288 0.0 0.0 0.00 0.00 0.00 61 1015.8
20180919165109 84 262 0.0 0.0 0.00 0.00 0.00 58 1015.9
20180919164611 84 93 0.0 0.0 0.00 0.00 0.00 61 1015.9
20180919164110 84 338 0.0 0.0 0.00 0.00 0.00 62 1015.9
20180919163611 84 307 0.0 0.0 0.00 0.00 0.00 61 1015.9
20180919163111 84 318 0.0 0.0 0.00 0.00 0.00 64 1015.9
20180919162610 84 248 0.0 0.0 0.00 0.00 0.00 66 1015.9
20180919162110 83 287 0.0 0.0 0.00 0.00 0.00 66 1015.9
20180919161611 83 47 0.0 0.0 0.00 0.00 0.00 63 1015.9
20180919161111 83 329 0.0 0.0 0.00 0.00 0.00 64 1015.8
20180919160610 83 312 0.0 0.0 0.00 0.00 0.00 63 1015.9
20180919160110 83 287 0.0 0.0 0.00 0.00 0.00 67 1015.9
20180919155609 83 281 0.0 0.0 0.00 0.00 0.00 64 1015.9
20180919155109 83 323 0.0 0.0 0.00 0.00 0.00 65 1015.9
20180919154610 82 332 0.0 0.0 0.00 0.00 0.00 67 1015.9
20180919154109 82 289 0.0 0.0 0.00 0.00 0.00 66 1015.9
20180919153611 82 304 0.0 0.0 0.00 0.00 0.00 65 1016.0
20180919153110 81 298 0.0 1.0 0.00 0.00 0.00 65 1016.0
20180919152610 81 300 0.0 1.0 0.00 0.00 0.00 66 1016.1
20180919152109 81 274 0.0 0.0 0.00 0.00 0.00 69 1016.1
20180919151611 80 294 0.0 0.0 0.00 0.00 0.00 68 1016.2
20180919151109 80 280 0.0 0.0 0.00 0.00 0.00 70 1016.2
20180919150609 80 283 0.0 0.0 0.00 0.00 0.00 72 1016.2
20180919150108 79 280 0.0 0.0 0.00 0.00 0.00 71 1016.2
20180919145608 78 234 0.0 0.0 0.00 0.00 0.00 73 1016.2
20180919145107 77 299 0.0 0.0 0.00 0.00 0.00 80 1016.2
20180919144605 76 299 0.0 0.0 0.00 0.00 0.00 81 1016.2
20180919144105 75 300 0.0 0.0 0.00 0.00 0.00 82 1016.2
20180919143605 74 315 0.0 0.0 0.00 0.00 0.00 84 1016.2
20180919143103 74 314 0.0 0.0 0.00 0.00 0.00 84 1016.2
20180919142604 73 225 0.0 0.0 0.00 0.00 0.00 89 1016.2
20180919142103 72 300 0.0 0.0 0.00 0.00 0.00 89 1016.1
20180919141601 71 300 0.0 0.0 0.00 0.00 0.00 92 1016.1
20180919141101 71 301 0.0 0.0 0.00 0.00 0.00 94 1016.0
20180919140600 70 298 0.0 0.0 0.00 0.00 0.00 95 1016.1
20180919140059 70 298 0.0 1.0 0.00 0.00 0.00 97 1016.0
20180919135559 69 296 0.0 1.0 0.00 0.00 0.00 97 1016.0
20180919135100 69 352 0.0 0.0 0.00 0.00 0.00 98 1016.0
20180919134558 68 353 0.0 0.0 0.00 0.00 0.00 97 1016.0
20180919134058 68 354 0.0 0.0 0.00 0.00 0.00 98 1016.0
20180919133558 68 285 0.0 0.0 0.00 0.00 0.00 98 1016.0
20180919133056 68 285 0.0 0.0 0.00 0.00 0.00 98 1015.9
20180919132555 68 285 0.0 0.0 0.00 0.00 0.00 98 1015.9
20180919132053 67 285 0.0 0.0 0.00 0.00 0.00 98 1015.9
20180919131553 67 285 0.0 0.0 0.00 0.00 0.00 97 1015.8
20180919131054 67 285 0.0 0.0 0.00 0.00 0.00 98 1015.8
20180919130554 66 285 0.0 0.0 0.00 0.00 0.00 97 1015.8
20180919130054 66 285 0.0 0.0 0.00 0.00 0.00 97 1015.7
20180919125553 66 285 0.0 1.0 0.00 0.00 0.00 98 1015.6
20180919125055 65 285 0.0 1.0 0.00 0.00 0.00 97 1015.6
20180919124554 65 190 0.0 0.0 0.00 0.00 0.00 97 1015.7
20180919124051 65 190 0.0 0.0 0.00 0.00 0.00 97 1015.7
20180919123552 65 190 0.0 0.0 0.00 0.00 0.00 97 1015.7
20180919123051 64 190 0.0 0.0 0.00 0.00 0.00 97 1015.6
20180919122551 64 190 0.0 0.0 0.00 0.00 0.00 97 1015.6
20180919122051 64 190 0.0 0.0 0.00 0.00 0.00 97 1015.6
20180919121552 63 190 0.0 0.0 0.00 0.00 0.00 97 1015.5
20180919121051 63 190 0.0 0.0 0.00 0.00 0.00 97 1015.4
20180919120552 63 190 0.0 0.0 0.00 0.00 0.00 96 1015.3
20180919120052 63 190 0.0 0.0 0.00 0.00 0.00 96 1015.3
20180919115550 63 190 0.0 0.0 0.00 0.00 0.00 96 1015.2
20180919115049 63 190 0.0 0.0 0.00 0.00 0.00 96 1015.1
20180919114549 63 190 0.0 0.0 0.00 0.00 0.00 96 1015.2
20180919114050 63 190 0.0 0.0 0.00 0.00 0.00 96 1015.0
20180919113550 63 190 0.0 0.0 0.00 0.00 0.00 96 1015.1
20180919113050 63 190 0.0 0.0 0.00 0.00 0.00 96 1015.1
20180919112549 63 190 0.0 0.0 0.00 0.00 0.00 96 1015.0
20180919112050 63 190 0.0 0.0 0.00 0.00 0.00 96 1014.9
20180919111549 63 190 0.0 0.0 0.00 0.00 0.00 96 1014.9
20180919111049 63 190 0.0 0.0 0.00 0.00 0.00 96 1014.8
20180919110548 63 190 0.0 0.0 0.00 0.00 0.00 96 1014.7
20180919110047 63 190 0.0 0.0 0.00 0.00 0.00 96 1014.7
20180919105548 63 190 0.0 0.0 0.00 0.00 0.00 96 1014.6
20180919105047 63 190 0.0 0.0 0.00 0.00 0.00 96 1014.6
20180919104547 63 190 0.0 0.0 0.00 0.00 0.00 96 1014.6
20180919104047 63 190 0.0 0.0 0.00 0.00 0.00 96 1014.5
20180919103545 63 190 0.0 0.0 0.00 0.00 0.00 96 1014.5
20180919103046 63 190 0.0 0.0 0.00 0.00 0.00 96 1014.4
20180919102547 63 190 0.0 0.0 0.00 0.00 0.00 96 1014.3
20180919102046 63 190 0.0 0.0 0.00 0.00 0.00 96 1014.3
20180919101545 63 190 0.0 0.0 0.00 0.00 0.00 96 1014.2
20180919101045 63 190 0.0 0.0 0.00 0.00 0.00 96 1014.1
20180919100545 63 190 0.0 0.0 0.00 0.00 0.00 96 1014.1
20180919100046 63 190 0.0 0.0 0.00 0.00 0.00 95 1014.0
20180919095545 63 190 0.0 0.0 0.00 0.00 0.00 95 1013.9
20180919095045 63 190 0.0 0.0 0.00 0.00 0.00 95 1013.9
20180919094545 63 190 0.0 0.0 0.00 0.00 0.00 95 1013.9
20180919094044 63 190 0.0 0.0 0.00 0.00 0.00 95 1013.8
20180919093546 63 190 0.0 0.0 0.00 0.00 0.00 95 1013.7
20180919093046 64 190 0.0 0.0 0.00 0.00 0.00 95 1013.6
20180919092543 64 190 0.0 0.0 0.00 0.00 0.00 95 1013.6
20180919092043 64 190 0.0 0.0 0.00 0.00 0.00 95 1013.6
20180919091542 64 190 0.0 0.0 0.00 0.00 0.00 95 1013.6
20180919091041 64 190 0.0 0.0 0.00 0.00 0.00 95 1013.6
20180919090540 64 190 0.0 0.0 0.00 0.00 0.00 95 1013.6
20180919090041 64 190 0.0 0.0 0.00 0.00 0.00 95 1013.6
20180919085541 64 190 0.0 0.0 0.00 0.00 0.00 95 1013.5
20180919085039 64 190 0.0 0.0 0.00 0.00 0.00 95 1013.5
20180919084540 64 190 0.0 0.0 0.00 0.00 0.00 95 1013.5
20180919084036 64 190 0.0 0.0 0.00 0.00 0.00 95 1013.5
20180919083538 64 190 0.0 0.0 0.00 0.00 0.00 95 1013.5
20180919083037 64 190 0.0 0.0 0.00 0.00 0.00 95 1013.5
20180919082538 64 190 0.0 0.0 0.00 0.00 0.00 95 1013.5
20180919082037 64 190 0.0 0.0 0.00 0.00 0.00 95 1013.6
20180919081538 64 190 0.0 0.0 0.00 0.00 0.00 95 1013.6
20180919081038 64 190 0.0 0.0 0.00 0.00 0.00 95 1013.6
20180919080538 64 190 0.0 0.0 0.00 0.00 0.00 95 1013.7
20180919080036 64 190 0.0 0.0 0.00 0.00 0.00 95 1013.7
20180919075537 65 190 0.0 0.0 0.00 0.00 0.00 95 1013.7
20180919075036 65 190 0.0 0.0 0.00 0.00 0.00 94 1013.7
20180919074537 65 190 0.0 0.0 0.00 0.00 0.00 94 1013.7
20180919074038 65 190 0.0 0.0 0.00 0.00 0.00 94 1013.8
20180919073538 65 190 0.0 0.0 0.00 0.00 0.00 94 1013.8
20180919073035 65 190 0.0 0.0 0.00 0.00 0.00 95 1013.7
20180919072534 65 190 0.0 0.0 0.00 0.00 0.00 94 1013.6
20180919072034 65 190 0.0 0.0 0.00 0.00 0.00 94 1013.6
20180919071536 65 190 0.0 0.0 0.00 0.00 0.00 94 1013.6
20180919071035 65 190 0.0 0.0 0.00 0.00 0.00 94 1013.6
20180919070536 65 190 0.0 0.0 0.00 0.00 0.00 94 1013.7
20180919070034 65 190 0.0 0.0 0.00 0.00 0.00 94 1013.7
20180919065535 65 190 0.0 0.0 0.00 0.00 0.00 94 1013.6
20180919065035 65 190 0.0 0.0 0.00 0.00 0.00 94 1013.6
20180919064536 66 190 0.0 0.0 0.00 0.00 0.00 94 1013.6
20180919064034 66 190 0.0 0.0 0.00 0.00 0.00 94 1013.7
20180919063530 66 190 0.0 0.0 0.00 0.00 0.00 94 1013.7
20180919063029 66 190 0.0 0.0 0.00 0.00 0.00 94 1013.6
20180919062529 66 190 0.0 0.0 0.00 0.00 0.00 94 1013.7
20180919062030 66 190 0.0 0.0 0.00 0.00 0.00 94 1013.7
20180919061530 66 190 0.0 0.0 0.00 0.00 0.00 94 1013.7
20180919061029 66 190 0.0 0.0 0.00 0.00 0.00 94 1013.9
20180919060530 66 190 0.0 0.0 0.00 0.00 0.00 94 1013.9
20180919060029 66 190 0.0 0.0 0.00 0.00 0.00 94 1013.9
20180919055529 66 190 0.0 0.0 0.00 0.00 0.00 94 1013.8
20180919055030 66 190 0.0 0.0 0.00 0.00 0.00 94 1013.8
20180919054529 67 190 0.0 0.0 0.00 0.00 0.00 94 1013.8
20180919054028 67 190 0.0 0.0 0.00 0.00 0.00 94 1013.9
20180919053529 67 190 0.0 0.0 0.00 0.00 0.00 94 1013.8
20180919053028 67 190 0.0 0.0 0.00 0.00 0.00 94 1013.8
20180919052529 67 190 0.0 0.0 0.00 0.00 0.00 93 1013.8
20180919052028 67 190 0.0 0.0 0.00 0.00 0.00 93 1013.8
20180919051527 67 190 0.0 0.0 0.00 0.00 0.00 93 1013.8
20180919051026 67 190 0.0 0.0 0.00 0.00 0.00 93 1014.0
20180919050526 67 190 0.0 0.0 0.00 0.00 0.00 93 1014.0
20180919050026 67 190 0.0 0.0 0.00 0.00 0.00 93 1014.0
20180919045526 67 190 0.0 0.0 0.00 0.00 0.00 93 1014.0
20180919045026 67 190 0.0 0.0 0.00 0.00 0.00 93 1014.0
20180919044526 67 190 0.0 0.0 0.00 0.00 0.00 93 1013.9
20180919044026 68 190 0.0 0.0 0.00 0.00 0.00 93 1014.0
20180919043526 68 190 0.0 0.0 0.00 0.00 0.00 93 1014.0
20180919043026 68 190 0.0 0.0 0.00 0.00 0.00 93 1014.0
20180919042527 68 190 0.0 0.0 0.00 0.00 0.00 93 1014.0
20180919042027 68 190 0.0 0.0 0.00 0.00 0.00 93 1014.0
20180919041524 68 190 0.0 0.0 0.00 0.00 0.00 93 1014.0
20180919041024 68 190 0.0 0.0 0.00 0.00 0.00 93 1013.9
20180919040524 68 190 0.0 0.0 0.00 0.00 0.00 93 1013.9
20180919040025 68 190 0.0 0.0 0.00 0.00 0.00 93 1013.9
20180919035521 69 190 0.0 0.0 0.00 0.00 0.00 93 1013.8
20180919035023 69 190 0.0 0.0 0.00 0.00 0.00 92 1013.8
20180919034523 69 190 0.0 0.0 0.00 0.00 0.00 92 1013.8
20180919034023 69 190 0.0 0.0 0.00 0.00 0.00 92 1013.9
20180919033522 69 190 0.0 0.0 0.00 0.00 0.00 92 1013.8
20180919033020 69 190 0.0 0.0 0.00 0.00 0.00 92 1013.8
20180919032517 69 190 0.0 0.0 0.00 0.00 0.00 92 1013.9
20180919032017 69 190 0.0 0.0 0.00 0.00 0.00 92 1013.8
20180919031514 69 190 0.0 0.0 0.00 0.00 0.00 92 1013.8
20180919031013 70 190 0.0 0.0 0.00 0.00 0.00 92 1013.8
20180919030514 70 190 0.0 0.0 0.00 0.00 0.00 92 1013.8
20180919030013 70 190 0.0 0.0 0.00 0.00 0.00 92 1013.7
20180919025515 70 190 0.0 0.0 0.00 0.00 0.00 92 1013.7
20180919025015 70 190 0.0 0.0 0.00 0.00 0.00 92 1013.6
20180919024514 70 190 0.0 0.0 0.00 0.00 0.00 92 1013.5
20180919024011 70 190 0.0 0.0 0.00 0.00 0.00 92 1013.5
20180919023511 70 190 0.0 0.0 0.00 0.00 0.00 91 1013.4
20180919023012 71 190 0.0 0.0 0.00 0.00 0.00 91 1013.4
20180919022511 71 190 0.0 0.0 0.00 0.00 0.00 91 1013.3
20180919022010 71 190 0.0 0.0 0.00 0.00 0.00 91 1013.3
20180919021509 71 190 0.0 0.0 0.00 0.00 0.00 91 1013.3
20180919021010 71 190 0.0 0.0 0.00 0.00 0.00 91 1013.2
20180919020509 71 190 0.0 0.0 0.00 0.00 0.00 90 1013.2
20180919020009 71 190 0.0 0.0 0.00 0.00 0.00 90 1013.2
20180919015509 71 190 0.0 0.0 0.00 0.00 0.00 90 1013.2
20180919015010 72 190 0.0 0.0 0.00 0.00 0.00 89 1013.1
20180919014510 72 190 0.0 0.0 0.00 0.00 0.00 89 1013.1
20180919014007 72 190 0.0 0.0 0.00 0.00 0.00 89 1013.0
20180919013507 72 190 0.0 0.0 0.00 0.00 0.00 89 1013.1
20180919013007 72 190 0.0 0.0 0.00 0.00 0.00 89 1013.0
20180919012507 72 190 0.0 0.0 0.00 0.00 0.00 88 1013.0
20180919012007 73 190 0.0 0.0 0.00 0.00 0.00 89 1012.8
20180919011507 73 190 0.0 0.0 0.00 0.00 0.00 88 1012.7
20180919011008 73 190 0.0 0.0 0.00 0.00 0.00 87 1012.6
20180919010507 73 190 0.0 0.0 0.00 0.00 0.00 87 1012.5
20180919010005 73 190 0.0 0.0 0.00 0.00 0.00 87 1012.6
20180919005505 74 190 0.0 0.0 0.00 0.00 0.00 87 1012.6
20180919005005 74 190 0.0 0.0 0.00 0.00 0.00 87 1012.5
20180919004507 74 190 0.0 0.0 0.00 0.00 0.00 87 1012.5
20180919004006 74 190 0.0 0.0 0.00 0.00 0.00 85 1012.4
20180919003505 74 190 0.0 0.0 0.00 0.00 0.00 85 1012.4
20180919003005 75 190 0.0 0.0 0.00 0.00 0.00 84 1012.2
20180919002505 75 190 0.0 0.0 0.00 0.00 0.00 85 1012.2
20180919002005 75 190 0.0 0.0 0.00 0.00 0.00 84 1012.1
20180919001504 75 190 0.0 0.0 0.00 0.00 0.00 83 1012.1
20180919001004 76 190 0.0 0.0 0.00 0.00 0.00 82 1012.1
20180919000505 76 190 0.0 0.0 0.00 0.00 0.00 80 1012.2
20180919000006 76 190 0.0 0.0 0.00 0.00 0.00 80 1012.1
20180918235507 77 190 0.0 0.0 0.00 0.00 0.00 79 1012.1
20180918235004 77 190 0.0 0.0 0.00 0.00 0.00 79 1012.0
20180918234505 77 190 0.0 0.0 0.00 0.00 0.00 78 1012.0
20180918234005 78 190 0.0 0.0 0.00 0.00 0.00 77 1012.0
20180918233503 78 190 0.0 0.0 0.00 0.00 0.00 77 1012.0
20180918233003 78 190 0.0 1.0 0.00 0.00 0.00 78 1011.9
20180918232502 79 190 0.0 1.0 0.00 0.00 0.00 76 1011.9
20180918232003 79 217 0.0 1.0 0.00 0.00 0.00 74 1011.9
20180918231501 79 75 0.0 1.0 0.00 0.00 0.00 73 1011.9
20180918231002 79 102 0.0 0.0 0.00 0.00 0.00 73 1011.8
20180918230500 79 343 0.0 0.0 0.00 0.00 0.00 72 1011.7
20180918230001 80 312 0.0 0.0 0.00 0.00 0.00 71 1011.7
20180918225502 80 16 0.0 0.0 0.00 0.00 0.00 71 1011.7
20180918225002 80 16 0.0 0.0 0.00 0.00 0.00 70 1011.6
20180918224459 80 24 0.0 0.0 0.00 0.00 0.00 69 1011.6
20180918224000 80 343 0.0 0.0 0.00 0.00 0.00 69 1011.6